User: anonymous   Login
Location: Fort Wayne
(41.1310°N, 85.1290°W)
Time: 14:15:39
(UTC-05:00)
Language:

Tiros 1 despin weight - Orbit

View from above orbital plane
View from above orbital plane
View from above satellite
View from above satellite

Ground track
Ground track

The orbit data is extracted from the following two-line orbital elements,

1 00115U 60002D   15058.47251324  .00001624  00000-0  22944-3 0  9999
2 00115 048.1660 220.5043 0035160 357.8681 002.2076 14.81716493925471
Epoch (UTC): 27 February 2015 11:20:25
Eccentricity: 0.0035160
inclination: 48.1660°
perigee height: 599 km
apogee height: 648 km
right ascension of ascending node: 220.5043°
argument of perigee: 357.8681°
revolutions per day: 14.81716493
mean anomaly at epoch: 2.2076°
orbit number at epoch: 92547

The dashed part of the orbit path shows where the satellite is in the earth's shadow,  

DLR